Location: La Brionne
(46.1728°N, 1.7849°E)
Time: 08:01:19
(UTC+00:00)

COSMOS 2428 - Pass Details

Date: 16 June 2021
Orbit: 845 x 858 km, 70.9° (Epoch: 03 August)

Event Time Altitude Azimuth Distance (km) Brightness Sun altitude
Exits shadow 23:43:00 - 242° (WSW) 2,664 5.1 -20.4°
Reaches altitude 10° 23:43:32 10° 245° (WSW) 2,487 4.9 -20.4°
Maximum altitude 23:48:39 33° 308° (NW) 1,415 4.2 -20.4°
Drops below altitude 10° 23:53:48 10° 12° (NNE) 2,503 6.3 -20.4°
Sets 23:56:32 0° 22° (NNE) 3,443 7.1 -20.4°
